Regional Weather Roundup
Issued by NWS Cleveland, OH

Home | Current Version | Previous Version | Graphics & Text | Print | Product List | Glossary On
Versions: 1 2 3 4 5 6 7 8 9 10 11 12 13 14 15 16 17 18 19 20 21 22 23 24 25 26 27 28 29 30 31 32 33 34 35 36 37 38 39 40 41 42 43 44 45 46 47 48 49 50
000
ASUS41 KCLE 210302
RWRCLE
OHIO REGIONAL WEATHER ROUNDUP
NATIONAL WEATHER SERVICE CLEVELAND, OH
1000 PM EST TUE FEB 20 2018

NOTE: "FAIR" INDICATES FEW OR NO CLOUDS BELOW 12,000 FEET WITH NO
SIGNIFICANT WEATHER AND/OR OBSTRUCTIONS TO VISIBILITY.

OHZ001>008-015>018-024>027-034-035-043-044-210400-
   NORTHWEST OHIO

CITY           SKY/WX    TMP DP  RH WIND       PRES   REMARKS
DEFIANCE       CLOUDY    58  54  86 CALM      30.06R
FINDLAY        FAIR      67  53  61 S20       30.05R
TOLEDO EXPRESS CLOUDY    60  56  86 W6        30.05R
TOLEDO EXEC    CLOUDY    68  56  65 SW18G32   30.05R
LIMA           FAIR      67  55  65 S17G25    30.06R
$$

OHZ009>014-019>023-028>033-038-089-210400-
   NORTHEAST OHIO

CITY           SKY/WX    TMP DP  RH WIND       PRES   REMARKS
CLE-HOPKINS    MOCLDY    70  54  56 S17G23    30.10R
CLE-LAKEFRONT  FAIR      71  52  50 S18G26    30.07R
CUY CO. ARPT   PTCLDY    72  54  53 S17       30.08S
LORAIN-ELYRIA  FAIR      68  50  52 SW12G24   30.08R
ASHTABULA      FAIR      67  54  63 S13       30.11R
AKRON-CANTON   FAIR      67  50  54 S14       30.13S
WOOSTER        FAIR      67  52  58 SW13      30.13R
MANSFIELD      FAIR      66  54  65 S15       30.12R
YOUNGSTOWN     CLOUDY    68  52  56 S10       30.13S
$$

OHZ042-051>053-060>062-070>072-077>081-210400-
  SOUTHWEST OHIO

CITY           SKY/WX    TMP DP  RH WIND       PRES   REMARKS
CINC-COVINGTON CLOUDY    67  57  70 S10       30.14R
CINC-LUNKEN    MOCLDY    70  56  61 S12       30.15R
HAMILTON       CLOUDY    72  56  57 S7        30.13R
DAYTON         MOCLDY    68  56  65 S14       30.13R
WRIGHT-PAT AFB MOCLDY    69  54  57 S13       30.12R
DAYTON GENERAL MOCLDY    68  54  60 S10       30.12R
WILMINGTON     MOCLDY    66  57  72 S12       30.15S
$$

OHZ036-037-039>041-045>050-054>059-063>069-073>076-082>088-210400-
  CENTRAL AND SOUTHEAST OHIO

CITY           SKY/WX    TMP DP  RH WIND       PRES   REMARKS
COLUMBUS       MOCLDY    68  55  63 S9        30.15R
OSU AIRPORT    FAIR      69  56  62 S15       30.13R
BOLTON FIELD   NOT AVBL
RICKENBACK AFB FAIR      66  54  66 S12       30.15S
NEWARK         FAIR      67  52  58 S9        30.15R
MARION         FAIR      67  53  61 S15       30.11R
LANCASTER      FAIR      69  53  56 S9        30.17S
ZANESVILLE     FAIR      67  50  54 S10       30.18R
NEW PHILLY     NOT AVBL
$$



USA.gov is the U.S. government's official web portal to all federal, state and local government web resources and services.